Regional Weather Roundup
Issued by NWS

Home | Current Version | Previous Version | Graphics & Text | Print | Product List | Glossary On
Versions: 1 2 3 4 5 6 7 8 9 10 11 12 13 14 15 16 17 18 19 20 21 22 23 24 25 26 27 28 29 30 31 32 33 34 35 36 37 38 39 40 41 42 43 44 45 46 47 48 49 50
000
ASUS43 KFSD 011402
RWRSD

WEATHER ROUNDUP FOR SOUTH DAKOTA
NATIONAL WEATHER SERVICE SIOUX FALLS SD
900 AM CDT SUN MAY 01 2016

NOTE: "FAIR" INDICATES FEW OR NO CLOUDS BELOW 12,000 FEET WITH NO
SIGNIFICANT WEATHER AND/OR OBSTRUCTIONS TO VISIBILITY.


SDZ001>005-009-010-012>017-011500-
NORTHWEST AND NORTH CENTRAL SOUTH DAKOTA

CITY           SKY/WX    TMP DP  RH WIND       PRES   REMARKS
BUFFALO          N/A     45  32  60 NW6       30.27S
FAITH            N/A     42  30  62 NW10      30.31R
MOBRIDGE       SUNNY     46  33  60 N10       30.28R
$$

SDZ012>016-024>037-041>051-057-063-072>074-011500-
SOUTHWEST AND SOUTH CENTRAL SOUTH DAKOTA

CITY           SKY/WX    TMP DP  RH WIND       PRES   REMARKS
RAPID CTY ARPT SUNNY     45  31  58 N15       30.31R
PIERRE         SUNNY     44  33  65 N9        30.27R
CUSTER         SUNNY     37  22  54 N15G24    30.28R
ELLSWORTH AFB  MOSUNNY   44  29  55 NW13      30.31R
PHILIP         SUNNY     44  32  62 N15       30.30R
PINE RIDGE     SUNNY     40  30  67 N9        30.28R
WINNER         FAIR      43  35  73 N10       30.24R
$$

SDZ004>011-016>023-039-040-011500-
NORTHEAST SOUTH DAKOTA

CITY           SKY/WX    TMP DP  RH WIND       PRES   REMARKS
ABERDEEN       SUNNY     46  32  58 N15       30.29R
WATERTOWN      SUNNY     43  30  60 NE12      30.22R
BROOKINGS      SUNNY     41  31  67 NE12      30.19R
SISSETON         N/A     47  31  53 E14       30.26S
$$

SDZ017-020-022-023-036>040-048>070-011500-
SOUTHEAST SOUTH DAKOTA

CITY           SKY/WX    TMP DP  RH WIND       PRES   REMARKS
SIOUX FALLS    LGT RAIN  40  35  83 N12       30.17R
HURON          SUNNY     43  32  65 NE13      30.24R
MITCHELL       CLOUDY    41  35  79 N12       30.22R
YANKTON        PTSUNNY   43  37  81 N14       30.16R
$$

ABBREVIATIONS USED IN REMARKS
   TC - TEMPERATURE IN CELSIUS
  WCI - WIND CHILL INDEX
   HX - HEAT INDEX
  VSB - VISIBILITY





USA.gov is the U.S. government's official web portal to all federal, state and local government web resources and services.